Weather History for Rome, GA

Change the Weather History Date:

Friday, March 29, 2013

  Actual Average Record
Temperature  
Mean Temperature 50 °F 56 °F  
Max Temperature 66 °F 68 °F 82 °F (1998)
Min Temperature 33 °F 43 °F 33 °F (2013)
Degree Days  
Heating Degree Days 16 10  
Month to date heating degree days 387  
Since 1 July heating degree days 3009  
Cooling Degree Days 0 0  
Month to date cooling degree days 0  
Year to date cooling degree days 0  
Moisture  
Dew Point 33 °F    
Average Humidity 61    
Maximum Humidity 93    
Minimum Humidity 29    
Precipitation  
Precipitation 0.00 in 0.14 in 0.73 in (2001)
Month to date precipitation 4.67  
Year to date precipitation 14.36  
Sea Level Pressure  
Sea Level Pressure 30.26 in    
Wind  
Wind Speed 2 mph (NE)    
Max Wind Speed 10 mph    
Max Gust Speed -    
Visibility 10 miles    
Events      
T = Trace of Precipitation, MM = Missing Value Source: NWS Daily Summary

Daily Weather History Graph

Daily Weather History Graph

Search for Another Location

Airport:

Trip Planner

Search our weather history database for the weather conditions in past years. The results will help you decide how hot, cold, wet, or windy it might be!

Date:

Astronomy

Mar. 29, 2013 Rise Set
Actual Time 7:31 AM EDT 7:59 PM EDT
Civil Twilight 7:06 AM EDT 8:24 PM EDT
Nautical Twilight 6:36 AM EDT 8:54 PM EDT
Astronomical Twilight 6:06 AM EDT 9:24 PM EDT
Moon 10:49 PM EDT (3/29) 8:47 AM EDT (3/29)
Length of Visible Light 13h 18m
Length of Day
12h 27m
Waning Gibbous, 93% of the Moon is Illuminated
Mar 29
Waning Gibbous
Apr 3
Last Quarter
Apr 10
New
Apr 18
First Quarter
Apr 25
Full

Hourly Weather History & Observations

Time (EDT) Temp. Dew Point Humidity Pressure Visibility Wind Dir Wind Speed Gust Speed Precip Events Conditions
12:53 AM 41.0 °F 33.1 °F 73% 30.30 in 10.0 mi Calm Calm - N/A   Clear
1:53 AM 37.0 °F 33.1 °F 86% 30.31 in 10.0 mi Calm Calm - N/A   Clear
2:53 AM 37.0 °F 32.0 °F 82% 30.30 in 10.0 mi Calm Calm - N/A   Clear
3:53 AM 34.0 °F 32.0 °F 92% 30.30 in 10.0 mi Calm Calm - N/A   Overcast
4:53 AM 35.1 °F 32.0 °F 89% 30.30 in 10.0 mi Calm Calm - N/A   Mostly Cloudy
5:53 AM 35.1 °F 33.1 °F 92% 30.29 in 10.0 mi Calm Calm - N/A   Partly Cloudy
6:53 AM 34.0 °F 32.0 °F 92% 30.30 in 10.0 mi Calm Calm - N/A   Clear
7:53 AM 33.1 °F 30.9 °F 92% 30.32 in 10.0 mi Calm Calm - N/A   Clear
8:53 AM 37.0 °F 35.1 °F 93% 30.33 in 10.0 mi Calm Calm - N/A   Unknown
9:53 AM 44.1 °F 37.0 °F 76% 30.34 in 10.0 mi Calm Calm - N/A   Mostly Cloudy
10:53 AM 48.9 °F 36.0 °F 61% 30.33 in 10.0 mi Calm Calm - N/A   Overcast
11:53 AM 55.9 °F 32.0 °F 40% 30.31 in 10.0 mi East 5.8 mph - N/A   Scattered Clouds
12:53 PM 61.0 °F 33.1 °F 35% 30.30 in 10.0 mi Calm Calm - N/A   Overcast
1:53 PM 63.0 °F 32.0 °F 31% 30.26 in 10.0 mi Calm Calm - N/A   Mostly Cloudy
2:53 PM 64.0 °F 33.1 °F 31% 30.22 in 10.0 mi North 9.2 mph - N/A   Mostly Cloudy
3:53 PM 66.0 °F 33.1 °F 29% 30.19 in 10.0 mi Variable 4.6 mph - N/A   Overcast
4:53 PM 66.0 °F 35.1 °F 32% 30.18 in 10.0 mi North 4.6 mph - N/A   Overcast
5:53 PM 60.1 °F 35.1 °F 39% 30.19 in 9.0 mi NE 10.4 mph - N/A   Partly Cloudy
6:53 PM 59.0 °F 34.0 °F 39% 30.18 in 10.0 mi ENE 10.4 mph - N/A   Clear
7:53 PM 55.9 °F 33.1 °F 42% 30.18 in 10.0 mi East 5.8 mph - N/A   Clear
8:53 PM 55.9 °F 33.1 °F 42% 30.18 in 10.0 mi NE 3.5 mph - N/A   Mostly Cloudy
9:53 PM 54.0 °F 35.1 °F 49% 30.18 in 10.0 mi ENE 4.6 mph - N/A   Unknown
11:53 PM 51.1 °F 36.0 °F 56% 30.20 in 10.0 mi NW 4.6 mph - N/A   Overcast